Time,TemperatureF,DewpointF,PressureIn,WindDirection,WindDirectionDegrees,WindSpeedMPH,WindSpeedGustMPH,Humidity,HourlyPrecipIn,Conditions,Clouds,dailyrainin,SolarRadiationWatts/m^2,SoftwareType,DateUTC
2013-09-24 00:00:00,45.6,39.5,29.95,WNW,301,4.0,7.0,79,0.00,,,0.00,0,Wunderground v.1.15,2013-09-24 04:00:00,
2013-09-24 00:02:00,45.6,39.5,29.95,West,278,4.0,7.0,79,0.00,,,0.00,0,Wunderground v.1.15,2013-09-24 04:02:00,
2013-09-24 00:05:00,45.6,39.5,29.95,West,275,5.0,7.0,79,0.00,,,0.00,0,Wunderground v.1.15,2013-09-24 04:05:00,
2013-09-24 00:07:00,45.5,39.4,29.95,West,264,5.0,7.0,79,0.00,,,0.00,0,Wunderground v.1.15,2013-09-24 04:07:00,
2013-09-24 00:13:00,45.3,39.5,29.95,West,280,4.0,5.0,80,0.00,,,0.00,0,Wunderground v.1.15,2013-09-24 04:13:00,
2013-09-24 00:15:00,45.2,39.4,29.95,West,280,4.0,5.0,80,0.00,,,0.00,0,Wunderground v.1.15,2013-09-24 04:15:00,
2013-09-24 00:20:00,45.0,39.5,29.95,West,260,3.0,6.0,81,0.00,,,0.00,0,Wunderground v.1.15,2013-09-24 04:20:00,
2013-09-24 00:21:00,45.0,39.5,29.95,West,281,3.0,6.0,81,0.00,,,0.00,0,Wunderground v.1.15,2013-09-24 04:21:00,
2013-09-24 00:26:00,44.8,39.6,29.95,WSW,247,3.0,6.0,82,0.00,,,0.00,0,Wunderground v.1.15,2013-09-24 04:26:00,
2013-09-24 00:32:00,44.5,39.7,29.95,WSW,248,3.0,4.0,83,0.00,,,0.00,0,Wunderground v.1.15,2013-09-24 04:32:00,
2013-09-24 00:37:00,44.4,39.6,29.95,WSW,253,3.0,4.0,83,0.00,,,0.00,0,Wunderground v.1.15,2013-09-24 04:37:00,
2013-09-24 00:43:00,44.2,39.7,29.95,WSW,245,2.0,4.0,84,0.00,,,0.00,0,Wunderground v.1.15,2013-09-24 04:43:00,
2013-09-24 00:48:00,43.9,39.7,29.95,WSW,246,3.0,4.0,85,0.00,,,0.00,0,Wunderground v.1.15,2013-09-24 04:48:00,
2013-09-24 00:54:00,43.8,39.6,29.94,WSW,251,3.0,4.0,85,0.00,,,0.00,0,Wunderground v.1.15,2013-09-24 04:54:00,
2013-09-24 00:59:00,43.7,39.5,29.94,WSW,253,3.0,3.0,85,0.00,,,0.00,0,Wunderground v.1.15,2013-09-24 04:59:00,
2013-09-24 01:05:00,43.6,39.4,29.94,West,260,3.0,4.0,85,0.00,,,0.00,0,Wunderground v.1.15,2013-09-24 05:05:00,
2013-09-24 01:11:00,43.6,39.4,29.94,West,266,4.0,6.0,85,0.00,,,0.00,0,Wunderground v.1.15,2013-09-24 05:11:00,
2013-09-24 01:17:00,43.7,39.5,29.94,WSW,238,4.0,7.0,85,0.00,,,0.00,0,Wunderground v.1.15,2013-09-24 05:17:00,
2013-09-24 01:23:00,43.7,39.5,29.94,West,280,4.0,4.0,85,0.00,,,0.00,0,Wunderground v.1.15,2013-09-24 05:23:00,
2013-09-24 01:28:00,43.7,39.5,29.94,WSW,256,4.0,5.0,85,0.00,,,0.00,0,Wunderground v.1.15,2013-09-24 05:28:00,
2013-09-24 01:33:00,43.6,39.4,29.94,West,270,3.0,4.0,85,0.00,,,0.00,0,Wunderground v.1.15,2013-09-24 05:33:00,
2013-09-24 01:39:00,43.6,39.4,29.94,WSW,246,3.0,4.0,85,0.00,,,0.00,0,Wunderground v.1.15,2013-09-24 05:39:00,
2013-09-24 01:45:00,43.5,39.6,29.93,WNW,282,3.0,4.0,86,0.00,,,0.00,0,Wunderground v.1.15,2013-09-24 05:45:00,
2013-09-24 01:51:00,43.5,39.6,29.93,West,277,3.0,4.0,86,0.00,,,0.00,0,Wunderground v.1.15,2013-09-24 05:51:00,
2013-09-24 01:56:00,43.4,39.5,29.94,West,260,3.0,7.0,86,0.00,,,0.00,0,Wunderground v.1.15,2013-09-24 05:56:00,
2013-09-24 02:01:00,43.2,39.3,29.93,West,266,3.0,4.0,86,0.00,,,0.00,0,Wunderground v.1.15,2013-09-24 06:01:00,
2013-09-24 02:07:00,43.0,39.4,29.93,West,268,3.0,4.0,87,0.00,,,0.00,0,Wunderground v.1.15,2013-09-24 06:07:00,
2013-09-24 02:12:00,42.9,39.3,29.93,WNW,286,3.0,7.0,87,0.00,,,0.00,0,Wunderground v.1.15,2013-09-24 06:12:00,
2013-09-24 02:17:00,42.8,39.5,29.93,WSW,239,3.0,7.0,88,0.00,,,0.00,0,Wunderground v.1.15,2013-09-24 06:17:00,
2013-09-24 02:22:00,42.8,39.5,29.93,West,272,3.0,7.0,88,0.00,,,0.00,0,Wunderground v.1.15,2013-09-24 06:22:00,
2013-09-24 02:27:00,42.9,39.6,29.93,WSW,249,3.0,7.0,88,0.00,,,0.00,0,Wunderground v.1.15,2013-09-24 06:27:00,
2013-09-24 02:32:00,42.8,39.5,29.93,WNW,289,4.0,6.0,88,0.00,,,0.00,0,Wunderground v.1.15,2013-09-24 06:32:00,
2013-09-24 02:38:00,42.8,39.5,29.92,West,274,3.0,7.0,88,0.00,,,0.00,0,Wunderground v.1.15,2013-09-24 06:38:00,
2013-09-24 02:43:00,42.7,39.0,29.92,West,261,2.0,9.0,88,0.00,,,0.00,0,weatherlink.com 1.10,2013-09-24 06:43:00,
2013-09-24 02:49:00,42.7,39.4,29.93,West,278,4.0,4.0,88,0.00,,,0.00,0,Wunderground v.1.15,2013-09-24 06:49:00,
2013-09-24 02:54:00,42.6,39.6,29.92,West,259,4.0,6.0,89,0.00,,,0.00,0,Wunderground v.1.15,2013-09-24 06:54:00,
2013-09-24 03:00:00,42.6,39.6,29.92,West,277,4.0,4.0,89,0.00,,,0.00,0,Wunderground v.1.15,2013-09-24 07:00:00,
2013-09-24 03:05:00,42.6,39.6,29.92,West,264,4.0,4.0,89,0.00,,,0.00,0,Wunderground v.1.15,2013-09-24 07:05:00,
2013-09-24 03:10:00,42.6,39.6,29.92,WSW,245,4.0,4.0,89,0.00,,,0.00,0,Wunderground v.1.15,2013-09-24 07:10:00,
2013-09-24 03:16:00,42.5,39.5,29.92,SW,223,4.0,7.0,89,0.00,,,0.00,0,Wunderground v.1.15,2013-09-24 07:16:00,
2013-09-24 03:23:00,42.5,39.5,29.92,West,270,5.0,8.0,89,0.00,,,0.00,0,Wunderground v.1.15,2013-09-24 07:23:00,
2013-09-24 03:28:00,42.6,39.6,29.92,West,276,4.0,8.0,89,0.00,,,0.00,0,Wunderground v.1.15,2013-09-24 07:28:00,
2013-09-24 03:33:00,42.6,39.6,29.92,WNW,287,5.0,6.0,89,0.00,,,0.00,0,Wunderground v.1.15,2013-09-24 07:33:00,
2013-09-24 03:38:00,42.7,39.4,29.92,WNW,285,5.0,9.0,88,0.00,,,0.00,0,Wunderground v.1.15,2013-09-24 07:38:00,
2013-09-24 03:44:00,42.7,39.4,29.92,WSW,252,4.0,7.0,88,0.00,,,0.00,0,Wunderground v.1.15,2013-09-24 07:44:00,
2013-09-24 03:50:00,42.7,39.7,29.92,West,278,4.0,4.0,89,0.00,,,0.00,0,Wunderground v.1.15,2013-09-24 07:50:00,
2013-09-24 03:55:00,42.5,39.5,29.91,SW,233,4.0,6.0,89,0.00,,,0.00,0,Wunderground v.1.15,2013-09-24 07:55:00,
2013-09-24 04:01:00,42.4,39.4,29.91,WSW,238,4.0,5.0,89,0.00,,,0.00,0,Wunderground v.1.15,2013-09-24 08:01:00,
2013-09-24 04:06:00,42.3,39.3,29.91,West,280,4.0,7.0,89,0.00,,,0.00,0,Wunderground v.1.15,2013-09-24 08:06:00,
2013-09-24 04:12:00,42.3,39.6,29.91,West,260,4.0,5.0,90,0.00,,,0.00,0,Wunderground v.1.15,2013-09-24 08:12:00,
2013-09-24 04:17:00,42.2,39.5,29.91,WSW,241,3.0,5.0,90,0.00,,,0.00,0,Wunderground v.1.15,2013-09-24 08:17:00,
2013-09-24 04:22:00,42.2,39.5,29.91,WNW,293,4.0,6.0,90,0.00,,,0.00,0,Wunderground v.1.15,2013-09-24 08:22:00,
2013-09-24 04:27:00,42.4,39.7,29.91,WNW,285,4.0,6.0,90,0.00,,,0.00,0,Wunderground v.1.15,2013-09-24 08:27:00,
2013-09-24 04:33:00,42.5,39.5,29.91,WNW,293,5.0,7.0,89,0.00,,,0.00,0,Wunderground v.1.15,2013-09-24 08:33:00,
2013-09-24 04:39:00,42.5,39.5,29.91,WSW,250,4.0,4.0,89,0.00,,,0.00,0,Wunderground v.1.15,2013-09-24 08:39:00,
2013-09-24 04:45:00,42.4,39.0,29.91,WSW,237,5.0,7.0,89,0.00,,,0.00,0,weatherlink.com 1.10,2013-09-24 08:45:00,
2013-09-24 04:50:00,42.3,39.3,29.91,West,260,3.0,4.0,89,0.00,,,0.00,0,Wunderground v.1.15,2013-09-24 08:50:00,
2013-09-24 04:56:00,42.1,39.4,29.90,SW,224,4.0,6.0,90,0.00,,,0.00,0,Wunderground v.1.15,2013-09-24 08:56:00,
2013-09-24 05:02:00,42.2,39.5,29.90,WSW,245,4.0,4.0,90,0.00,,,0.00,0,Wunderground v.1.15,2013-09-24 09:02:00,
2013-09-24 05:07:00,42.2,39.2,29.90,SW,221,4.0,7.0,89,0.00,,,0.00,0,Wunderground v.1.15,2013-09-24 09:07:00,
2013-09-24 05:13:00,42.0,39.3,29.90,WSW,251,3.0,5.0,90,0.00,,,0.00,0,Wunderground v.1.15,2013-09-24 09:13:00,
2013-09-24 05:18:00,41.9,39.2,29.90,WSW,242,3.0,5.0,90,0.00,,,0.00,0,Wunderground v.1.15,2013-09-24 09:18:00,
2013-09-24 05:24:00,41.9,39.2,29.90,WSW,245,3.0,4.0,90,0.00,,,0.00,0,Wunderground v.1.15,2013-09-24 09:24:00,
2013-09-24 05:30:00,41.9,39.0,29.90,WSW,257,4.0,5.0,89,0.00,,,0.00,0,weatherlink.com 1.10,2013-09-24 09:30:00,
2013-09-24 05:35:00,41.9,39.2,29.90,West,270,3.0,4.0,90,0.00,,,0.00,0,Wunderground v.1.15,2013-09-24 09:35:00,
2013-09-24 05:41:00,42.0,39.3,29.90,WSW,239,3.0,4.0,90,0.00,,,0.00,0,Wunderground v.1.15,2013-09-24 09:41:00,
2013-09-24 05:46:00,42.3,39.3,29.90,WSW,246,3.0,6.0,89,0.00,,,0.00,0,Wunderground v.1.15,2013-09-24 09:46:00,
2013-09-24 05:51:00,42.6,39.6,29.90,WSW,248,4.0,7.0,89,0.00,,,0.00,0,Wunderground v.1.15,2013-09-24 09:51:00,
2013-09-24 05:56:00,42.9,39.6,29.90,WSW,258,4.0,7.0,88,0.00,,,0.00,0,Wunderground v.1.15,2013-09-24 09:56:00,
2013-09-24 06:01:00,43.1,39.5,29.90,WNW,284,4.0,7.0,87,0.00,,,0.00,0,Wunderground v.1.15,2013-09-24 10:01:00,
2013-09-24 06:07:00,43.4,39.8,29.90,WNW,282,5.0,7.0,87,0.00,,,0.00,0,Wunderground v.1.15,2013-09-24 10:07:00,
2013-09-24 06:12:00,43.6,39.7,29.90,WNW,285,5.0,7.0,86,0.00,,,0.00,0,Wunderground v.1.15,2013-09-24 10:12:00,
2013-09-24 06:17:00,43.8,39.9,29.90,West,278,4.0,7.0,86,0.00,,,0.00,0,Wunderground v.1.15,2013-09-24 10:17:00,
2013-09-24 06:23:00,44.0,39.8,29.90,West,274,4.0,7.0,85,0.00,,,0.00,0,Wunderground v.1.15,2013-09-24 10:23:00,
2013-09-24 06:28:00,44.0,39.8,29.91,West,273,4.0,7.0,85,0.00,,,0.00,0,Wunderground v.1.15,2013-09-24 10:28:00,
2013-09-24 06:33:00,44.0,39.8,29.90,West,262,3.0,6.0,85,0.00,,,0.00,5,Wunderground v.1.15,2013-09-24 10:33:00,
2013-09-24 06:39:00,43.8,39.6,29.90,WNW,299,4.0,5.0,85,0.00,,,0.00,9,Wunderground v.1.15,2013-09-24 10:39:00,
2013-09-24 06:44:00,43.8,39.6,29.90,West,267,5.0,8.0,85,0.00,,,0.00,12,Wunderground v.1.15,2013-09-24 10:44:00,
2013-09-24 06:49:00,44.0,39.5,29.90,WNW,287,7.0,7.0,84,0.00,,,0.00,14,Wunderground v.1.15,2013-09-24 10:49:00,
2013-09-24 06:55:00,44.2,39.7,29.90,West,267,7.0,10.0,84,0.00,,,0.00,21,Wunderground v.1.15,2013-09-24 10:55:00,
2013-09-24 07:00:00,44.3,39.5,29.90,West,267,7.0,7.0,83,0.00,,,0.00,28,Wunderground v.1.15,2013-09-24 11:00:00,
2013-09-24 07:06:00,44.4,39.6,29.90,West,264,6.0,10.0,83,0.00,,,0.00,40,Wunderground v.1.15,2013-09-24 11:06:00,
2013-09-24 07:11:00,44.6,39.8,29.90,West,269,5.0,6.0,83,0.00,,,0.00,54,Wunderground v.1.15,2013-09-24 11:11:00,
2013-09-24 07:16:00,44.8,39.6,29.90,WNW,282,4.0,6.0,82,0.00,,,0.00,70,Wunderground v.1.15,2013-09-24 11:16:00,
2013-09-24 07:22:00,45.1,39.9,29.90,WSW,248,3.0,4.0,82,0.00,,,0.00,90,Wunderground v.1.15,2013-09-24 11:22:00,
2013-09-24 07:28:00,45.4,40.2,29.89,SW,235,3.0,4.0,82,0.00,,,0.00,107,Wunderground v.1.15,2013-09-24 11:28:00,
2013-09-24 07:34:00,45.9,40.4,29.89,WNW,287,3.0,4.0,81,0.00,,,0.00,132,Wunderground v.1.15,2013-09-24 11:34:00,
2013-09-24 07:40:00,46.7,40.5,29.89,WNW,292,4.0,4.0,79,0.00,,,0.00,153,Wunderground v.1.15,2013-09-24 11:40:00,
2013-09-24 07:45:00,47.3,40.8,29.89,NW,318,5.0,8.0,78,0.00,,,0.00,172,Wunderground v.1.15,2013-09-24 11:45:00,
2013-09-24 07:50:00,47.7,40.2,29.89,NW,305,6.0,8.0,75,0.00,,,0.00,190,Wunderground v.1.15,2013-09-24 11:50:00,
2013-09-24 07:56:00,48.2,40.3,29.89,WNW,293,6.0,8.0,74,0.00,,,0.00,211,Wunderground v.1.15,2013-09-24 11:56:00,
2013-09-24 08:01:00,48.5,40.2,29.89,WNW,299,7.0,9.0,73,0.00,,,0.00,227,Wunderground v.1.15,2013-09-24 12:01:00,
2013-09-24 08:08:00,48.8,40.5,29.90,WNW,293,7.0,10.0,73,0.00,,,0.00,248,Wunderground v.1.15,2013-09-24 12:08:00,
2013-09-24 08:13:00,49.0,40.4,29.89,West,280,7.0,9.0,72,0.00,,,0.00,265,Wunderground v.1.15,2013-09-24 12:13:00,
2013-09-24 08:18:00,49.2,40.2,29.89,West,270,7.0,9.0,71,0.00,,,0.00,281,Wunderground v.1.15,2013-09-24 12:18:00,
2013-09-24 08:24:00,49.6,40.9,29.89,NW,314,6.0,12.0,72,0.00,,,0.00,301,Wunderground v.1.15,2013-09-24 12:24:00,
2013-09-24 08:29:00,50.0,41.0,29.89,WNW,293,5.0,8.0,71,0.00,,,0.00,316,Wunderground v.1.15,2013-09-24 12:29:00,
2013-09-24 08:35:00,50.3,40.9,29.88,WNW,299,5.0,8.0,70,0.00,,,0.00,334,Wunderground v.1.15,2013-09-24 12:35:00,
2013-09-24 08:40:00,50.6,41.5,29.88,NW,322,5.0,10.0,71,0.00,,,0.00,350,Wunderground v.1.15,2013-09-24 12:40:00,
2013-09-24 08:46:00,50.7,41.3,29.88,West,280,5.0,10.0,70,0.00,,,0.00,369,Wunderground v.1.15,2013-09-24 12:46:00,
2013-09-24 08:52:00,50.8,41.0,29.87,West,275,6.0,10.0,69,0.00,,,0.00,387,Wunderground v.1.15,2013-09-24 12:52:00,
2013-09-24 08:58:00,50.9,41.1,29.87,WNW,301,8.0,14.0,69,0.00,,,0.00,404,Wunderground v.1.15,2013-09-24 12:58:00,
2013-09-24 09:03:00,51.2,41.0,29.87,NW,314,3.0,14.0,68,0.00,,,0.00,420,weatherlink.com 1.10,2013-09-24 13:03:00,
2013-09-24 09:09:00,51.5,41.3,29.87,NW,318,5.0,12.0,68,0.00,,,0.00,434,Wunderground v.1.15,2013-09-24 13:09:00,
2013-09-24 09:14:00,51.6,41.4,29.86,NW,308,5.0,10.0,68,0.00,,,0.00,452,Wunderground v.1.15,2013-09-24 13:14:00,
2013-09-24 09:20:00,52.0,41.8,29.86,NW,307,5.0,5.0,68,0.00,,,0.00,466,Wunderground v.1.15,2013-09-24 13:20:00,
2013-09-24 09:25:00,52.6,42.3,29.86,West,266,3.0,7.0,68,0.00,,,0.00,482,Wunderground v.1.15,2013-09-24 13:25:00,
2013-09-24 09:31:00,52.4,42.5,29.86,West,264,3.0,4.0,69,0.00,,,0.00,494,Wunderground v.1.15,2013-09-24 13:31:00,
2013-09-24 09:36:00,52.8,42.5,29.86,WSW,255,4.0,6.0,68,0.00,,,0.00,508,Wunderground v.1.15,2013-09-24 13:36:00,
2013-09-24 09:42:00,52.7,42.0,29.87,SSW,207,5.0,7.0,67,0.00,,,0.00,522,Wunderground v.1.15,2013-09-24 13:42:00,
2013-09-24 09:47:00,52.9,42.2,29.86,West,276,5.0,8.0,67,0.00,,,0.00,536,Wunderground v.1.15,2013-09-24 13:47:00,
2013-09-24 09:53:00,53.1,42.8,29.85,West,279,4.0,6.0,68,0.00,,,0.00,561,Wunderground v.1.15,2013-09-24 13:53:00,
2013-09-24 09:58:00,53.7,43.0,29.85,WSW,257,4.0,6.0,67,0.00,,,0.00,591,Wunderground v.1.15,2013-09-24 13:58:00,
2013-09-24 10:03:00,53.5,42.4,29.85,WSW,254,5.0,8.0,66,0.00,,,0.00,598,Wunderground v.1.15,2013-09-24 14:03:00,
2013-09-24 10:10:00,53.6,42.5,29.85,NNW,330,5.0,5.0,66,0.00,,,0.00,443,Wunderground v.1.15,2013-09-24 14:10:00,
2013-09-24 10:15:00,53.8,41.9,29.86,WNW,290,6.0,8.0,64,0.00,,,0.00,390,Wunderground v.1.15,2013-09-24 14:15:00,
2013-09-24 10:21:00,54.1,41.8,29.86,West,275,7.0,8.0,63,0.00,,,0.00,179,Wunderground v.1.15,2013-09-24 14:21:00,
2013-09-24 10:26:00,54.6,41.8,29.86,West,270,8.0,10.0,62,0.00,,,0.00,694,Wunderground v.1.15,2013-09-24 14:26:00,
2013-09-24 10:32:00,54.7,41.1,29.85,NW,314,8.0,10.0,60,0.00,,,0.00,592,Wunderground v.1.15,2013-09-24 14:32:00,
2013-09-24 10:37:00,55.2,41.5,29.85,SW,214,8.0,14.0,60,0.00,,,0.00,659,Wunderground v.1.15,2013-09-24 14:37:00,
2013-09-24 10:42:00,55.7,42.0,29.85,NNW,328,7.0,8.0,60,0.00,,,0.00,668,Wunderground v.1.15,2013-09-24 14:42:00,
2013-09-24 10:48:00,55.7,41.1,29.86,WNW,285,9.0,15.0,58,0.00,,,0.00,698,Wunderground v.1.15,2013-09-24 14:48:00,
2013-09-24 10:53:00,55.8,41.2,29.85,West,280,10.0,14.0,58,0.00,,,0.00,694,Wunderground v.1.15,2013-09-24 14:53:00,
2013-09-24 10:58:00,55.7,41.1,29.85,West,264,11.0,15.0,58,0.00,,,0.00,733,Wunderground v.1.15,2013-09-24 14:58:00,
2013-09-24 11:04:00,56.2,41.2,29.86,NNW,328,12.0,17.0,57,0.00,,,0.00,714,Wunderground v.1.15,2013-09-24 15:04:00,
2013-09-24 11:10:00,56.8,41.7,29.86,NNW,334,11.0,12.0,57,0.00,,,0.00,770,Wunderground v.1.15,2013-09-24 15:10:00,
2013-09-24 11:16:00,56.8,41.3,29.85,NW,324,10.0,18.0,56,0.00,,,0.00,710,Wunderground v.1.15,2013-09-24 15:16:00,
2013-09-24 11:22:00,56.8,41.3,29.86,NW,318,11.0,14.0,56,0.00,,,0.00,721,Wunderground v.1.15,2013-09-24 15:22:00,
2013-09-24 11:27:00,56.7,40.7,29.85,NW,310,12.0,14.0,55,0.00,,,0.00,728,Wunderground v.1.15,2013-09-24 15:27:00,
2013-09-24 11:33:00,57.2,41.2,29.85,NW,324,10.0,12.0,55,0.00,,,0.00,733,Wunderground v.1.15,2013-09-24 15:33:00,
2013-09-24 11:39:00,57.4,41.4,29.85,NW,318,9.0,17.0,55,0.00,,,0.00,735,Wunderground v.1.15,2013-09-24 15:39:00,
2013-09-24 11:44:00,57.2,41.2,29.84,NNW,344,10.0,11.0,55,0.00,,,0.00,742,Wunderground v.1.15,2013-09-24 15:44:00,
2013-09-24 11:50:00,57.6,41.5,29.84,West,276,9.0,9.0,55,0.00,,,0.00,740,Wunderground v.1.15,2013-09-24 15:50:00,
2013-09-24 11:55:00,57.6,41.1,29.84,NW,307,8.0,10.0,54,0.00,,,0.00,751,Wunderground v.1.15,2013-09-24 15:55:00,
2013-09-24 12:01:00,57.8,40.8,29.84,West,277,8.0,16.0,53,0.00,,,0.00,752,Wunderground v.1.15,2013-09-24 16:01:00,
2013-09-24 12:06:00,57.8,41.3,29.83,SSW,197,8.0,16.0,54,0.00,,,0.00,747,Wunderground v.1.15,2013-09-24 16:06:00,
2013-09-24 12:12:00,58.1,41.5,29.83,WNW,300,7.0,14.0,54,0.00,,,0.00,751,Wunderground v.1.15,2013-09-24 16:12:00,
2013-09-24 12:17:00,57.7,40.7,29.84,West,268,8.0,14.0,53,0.00,,,0.00,751,Wunderground v.1.15,2013-09-24 16:17:00,
2013-09-24 12:23:00,57.9,41.3,29.84,NNW,339,8.0,15.0,54,0.00,,,0.00,754,Wunderground v.1.15,2013-09-24 16:23:00,
2013-09-24 12:29:00,58.4,41.8,29.83,North,354,8.0,15.0,54,0.00,,,0.00,759,Wunderground v.1.15,2013-09-24 16:29:00,
2013-09-24 12:34:00,59.1,41.5,29.83,NW,322,7.0,10.0,52,0.00,,,0.00,754,Wunderground v.1.15,2013-09-24 16:34:00,
2013-09-24 12:39:00,58.9,41.3,29.83,West,270,8.0,10.0,52,0.00,,,0.00,777,Wunderground v.1.15,2013-09-24 16:39:00,
2013-09-24 12:44:00,58.8,41.2,29.83,WSW,253,6.0,8.0,52,0.00,,,0.00,756,Wunderground v.1.15,2013-09-24 16:44:00,
2013-09-24 12:50:00,58.9,41.3,29.83,NNW,332,6.0,8.0,52,0.00,,,0.00,761,Wunderground v.1.15,2013-09-24 16:50:00,
2013-09-24 12:55:00,59.4,41.8,29.83,NW,318,7.0,11.0,52,0.00,,,0.00,802,Wunderground v.1.15,2013-09-24 16:55:00,
2013-09-24 13:01:00,59.4,41.8,29.82,WNW,282,7.0,9.0,52,0.00,,,0.00,749,Wunderground v.1.15,2013-09-24 17:01:00,
2013-09-24 13:07:00,59.3,42.2,29.83,NNW,339,9.0,16.0,53,0.00,,,0.00,744,Wunderground v.1.15,2013-09-24 17:07:00,
2013-09-24 13:12:00,59.5,41.9,29.82,SW,220,8.0,9.0,52,0.00,,,0.00,742,Wunderground v.1.15,2013-09-24 17:12:00,
2013-09-24 13:18:00,60.2,42.0,29.81,WNW,291,6.0,10.0,51,0.00,,,0.00,738,Wunderground v.1.15,2013-09-24 17:18:00,
2013-09-24 13:24:00,59.7,41.0,29.81,NNW,345,8.0,13.0,50,0.00,,,0.00,731,Wunderground v.1.15,2013-09-24 17:24:00,
2013-09-24 13:30:00,59.9,41.7,29.80,North,10,10.0,10.0,51,0.00,,,0.00,726,Wunderground v.1.15,2013-09-24 17:30:00,
2013-09-24 13:36:00,60.2,42.0,29.81,West,270,8.0,11.0,51,0.00,,,0.00,726,Wunderground v.1.15,2013-09-24 17:36:00,
2013-09-24 13:42:00,60.3,41.6,29.80,NNW,343,8.0,8.0,50,0.00,,,0.00,722,Wunderground v.1.15,2013-09-24 17:42:00,
2013-09-24 13:48:00,60.2,41.5,29.81,WNW,291,9.0,13.0,50,0.00,,,0.00,650,Wunderground v.1.15,2013-09-24 17:48:00,
2013-09-24 13:53:00,60.1,40.9,29.80,WNW,284,10.0,14.0,49,0.00,,,0.00,729,Wunderground v.1.15,2013-09-24 17:53:00,
2013-09-24 13:59:00,60.9,42.1,29.80,WNW,291,7.0,14.0,50,0.00,,,0.00,726,Wunderground v.1.15,2013-09-24 17:59:00,
2013-09-24 14:05:00,61.0,41.2,29.81,NW,316,7.0,9.0,48,0.00,,,0.00,891,Wunderground v.1.15,2013-09-24 18:05:00,
2013-09-24 14:10:00,61.2,41.3,29.81,West,260,8.0,8.0,48,0.00,,,0.00,455,Wunderground v.1.15,2013-09-24 18:10:00,
2013-09-24 14:15:00,60.9,41.6,29.81,NW,318,8.0,11.0,49,0.00,,,0.00,336,Wunderground v.1.15,2013-09-24 18:15:00,
2013-09-24 14:20:00,60.9,42.1,29.81,West,272,7.0,9.0,50,0.00,,,0.00,352,Wunderground v.1.15,2013-09-24 18:20:00,
2013-09-24 14:25:00,61.0,41.7,29.81,WNW,287,6.0,9.0,49,0.00,,,0.00,373,Wunderground v.1.15,2013-09-24 18:25:00,
2013-09-24 14:30:00,61.1,42.3,29.81,NNW,332,6.0,6.0,50,0.00,,,0.00,323,Wunderground v.1.15,2013-09-24 18:30:00,
2013-09-24 14:36:00,61.3,41.4,29.81,West,278,6.0,10.0,48,0.00,,,0.00,568,Wunderground v.1.15,2013-09-24 18:36:00,
2013-09-24 14:42:00,61.4,41.0,29.81,NE,52,7.0,10.0,47,0.00,,,0.00,415,Wunderground v.1.15,2013-09-24 18:42:00,
2013-09-24 14:47:00,61.1,43.3,29.81,ESE,103,5.0,10.0,52,0.00,,,0.00,327,Wunderground v.1.15,2013-09-24 18:47:00,
2013-09-24 14:53:00,60.6,43.9,29.80,ESE,122,3.0,4.0,54,0.00,,,0.00,424,Wunderground v.1.15,2013-09-24 18:53:00,
2013-09-24 14:59:00,59.7,45.8,29.81,ENE,63,5.0,9.0,60,0.00,,,0.00,287,Wunderground v.1.15,2013-09-24 18:59:00,
2013-09-24 15:04:00,58.2,46.1,29.81,ENE,66,7.0,8.0,64,0.00,,,0.00,230,Wunderground v.1.15,2013-09-24 19:04:00,
2013-09-24 15:09:00,57.7,46.0,29.81,NE,54,7.0,8.0,65,0.00,,,0.00,239,Wunderground v.1.15,2013-09-24 19:09:00,
2013-09-24 15:14:00,57.3,46.0,29.81,ENE,72,6.0,10.0,66,0.00,,,0.00,195,Wunderground v.1.15,2013-09-24 19:14:00,
2013-09-24 15:20:00,56.8,46.0,29.82,ENE,57,7.0,9.0,67,0.00,,,0.00,265,Wunderground v.1.15,2013-09-24 19:20:00,
2013-09-24 15:25:00,56.8,46.7,29.81,ENE,67,7.0,10.0,69,0.00,,,0.00,274,Wunderground v.1.15,2013-09-24 19:25:00,
2013-09-24 15:30:00,57.2,46.7,29.82,ENE,69,7.0,7.0,68,0.00,,,0.00,323,Wunderground v.1.15,2013-09-24 19:30:00,
2013-09-24 15:36:00,56.7,46.6,29.82,ENE,60,8.0,12.0,69,0.00,,,0.00,199,Wunderground v.1.15,2013-09-24 19:36:00,
2013-09-24 15:41:00,56.4,46.4,29.83,ENE,68,8.0,11.0,69,0.00,,,0.00,209,Wunderground v.1.15,2013-09-24 19:41:00,
2013-09-24 15:46:00,56.2,46.9,29.83,East,85,8.0,11.0,71,0.00,,,0.00,229,Wunderground v.1.15,2013-09-24 19:46:00,
2013-09-24 15:51:00,55.7,46.4,29.83,NE,50,9.0,9.0,71,0.00,,,0.00,128,Wunderground v.1.15,2013-09-24 19:51:00,
2013-09-24 15:57:00,55.5,45.9,29.84,NE,50,9.0,12.0,70,0.00,,,0.00,109,Wunderground v.1.15,2013-09-24 19:57:00,
2013-09-24 16:02:00,55.4,45.8,29.84,NNE,31,8.0,8.0,70,0.00,,,0.00,98,Wunderground v.1.15,2013-09-24 20:02:00,
2013-09-24 16:07:00,55.5,46.2,29.84,NNE,12,7.0,13.0,71,0.00,,,0.00,97,Wunderground v.1.15,2013-09-24 20:07:00,
2013-09-24 16:13:00,55.5,46.2,29.84,NNE,25,7.0,9.0,71,0.00,,,0.00,83,Wunderground v.1.15,2013-09-24 20:13:00,
2013-09-24 16:18:00,55.4,46.2,29.84,ENE,73,6.0,9.0,71,0.00,,,0.00,102,Wunderground v.1.15,2013-09-24 20:18:00,
2013-09-24 16:24:00,55.4,46.2,29.84,NE,35,6.0,9.0,71,0.00,,,0.00,95,Wunderground v.1.15,2013-09-24 20:24:00,
2013-09-24 16:30:00,55.3,45.7,29.84,NNE,25,6.0,6.0,70,0.00,,,0.00,95,Wunderground v.1.15,2013-09-24 20:30:00,
2013-09-24 16:36:00,55.3,45.3,29.84,NE,51,6.0,8.0,69,0.00,,,0.00,88,Wunderground v.1.15,2013-09-24 20:36:00,
2013-09-24 16:42:00,55.3,46.1,29.84,NE,46,6.0,10.0,71,0.00,,,0.00,84,Wunderground v.1.15,2013-09-24 20:42:00,
2013-09-24 16:48:00,55.3,44.9,29.84,NNE,28,7.0,10.0,68,0.00,,,0.00,132,Wunderground v.1.15,2013-09-24 20:48:00,
2013-09-24 16:53:00,55.4,46.2,29.84,NE,35,6.0,7.0,71,0.00,,,0.00,83,Wunderground v.1.15,2013-09-24 20:53:00,
2013-09-24 16:59:00,55.3,44.9,29.84,NNE,27,6.0,9.0,68,0.00,,,0.00,67,Wunderground v.1.15,2013-09-24 20:59:00,
2013-09-24 17:04:00,55.3,45.3,29.85,NNE,32,7.0,9.0,69,0.00,,,0.00,58,Wunderground v.1.15,2013-09-24 21:04:00,
2013-09-24 17:10:00,55.4,45.0,29.85,NNE,31,7.0,10.0,68,0.00,,,0.00,53,Wunderground v.1.15,2013-09-24 21:10:00,
2013-09-24 17:15:00,55.4,45.4,29.85,NNW,345,8.0,10.0,69,0.00,,,0.00,46,Wunderground v.1.15,2013-09-24 21:15:00,
2013-09-24 17:20:00,55.5,46.2,29.85,NNE,32,7.0,7.0,71,0.00,,,0.00,46,Wunderground v.1.15,2013-09-24 21:20:00,
2013-09-24 17:26:00,55.4,45.0,29.85,NNE,28,6.0,9.0,68,0.00,,,0.00,39,Wunderground v.1.15,2013-09-24 21:26:00,
2013-09-24 17:31:00,55.4,45.8,29.85,NE,37,7.0,7.0,70,0.00,,,0.00,39,Wunderground v.1.15,2013-09-24 21:31:00,
2013-09-24 17:37:00,55.4,45.4,29.85,North,8,6.0,8.0,69,0.00,,,0.00,37,Wunderground v.1.15,2013-09-24 21:37:00,
2013-09-24 17:42:00,55.4,45.4,29.86,North,4,4.0,5.0,69,0.00,,,0.00,33,Wunderground v.1.15,2013-09-24 21:42:00,
2013-09-24 17:47:00,55.4,45.4,29.86,NNE,23,3.0,5.0,69,0.00,,,0.00,26,Wunderground v.1.15,2013-09-24 21:47:00,
2013-09-24 17:53:00,55.3,44.9,29.86,North,354,3.0,4.0,68,0.00,,,0.00,23,Wunderground v.1.15,2013-09-24 21:53:00,
2013-09-24 17:59:00,55.4,45.4,29.86,NNW,330,3.0,5.0,69,0.00,,,0.00,19,Wunderground v.1.15,2013-09-24 21:59:00,
2013-09-24 18:04:00,55.3,45.3,29.86,NW,320,4.0,5.0,69,0.00,,,0.00,19,Wunderground v.1.15,2013-09-24 22:04:00,
2013-09-24 18:10:00,55.3,45.7,29.86,NNW,331,4.0,4.0,70,0.00,,,0.00,21,Wunderground v.1.15,2013-09-24 22:10:00,
2013-09-24 18:15:00,55.3,45.7,29.86,NNE,14,2.0,4.0,70,0.00,,,0.00,16,Wunderground v.1.15,2013-09-24 22:15:00,
2013-09-24 18:20:00,55.2,45.6,29.86,NNE,18,2.0,4.0,70,0.00,,,0.00,12,Wunderground v.1.15,2013-09-24 22:20:00,
2013-09-24 18:26:00,55.1,45.5,29.86,NNW,332,2.0,4.0,70,0.00,,,0.00,7,Wunderground v.1.15,2013-09-24 22:26:00,
2013-09-24 18:32:00,55.0,45.8,29.86,WNW,301,2.0,4.0,71,0.00,,,0.00,5,Wunderground v.1.15,2013-09-24 22:32:00,
2013-09-24 18:38:00,54.8,46.3,29.86,WNW,288,2.0,4.0,73,0.00,,,0.00,0,Wunderground v.1.15,2013-09-24 22:38:00,
2013-09-24 18:44:00,54.5,46.7,29.86,WNW,299,3.0,4.0,75,0.00,,,0.00,0,Wunderground v.1.15,2013-09-24 22:44:00,
2013-09-24 18:49:00,54.3,46.5,29.87,NW,311,3.0,4.0,75,0.00,,,0.00,0,Wunderground v.1.15,2013-09-24 22:49:00,
2013-09-24 18:54:00,54.2,46.4,29.87,NW,310,2.0,4.0,75,0.00,,,0.00,0,Wunderground v.1.15,2013-09-24 22:54:00,
2013-09-24 18:59:00,54.1,46.3,29.87,WNW,284,2.0,4.0,75,0.00,,,0.00,0,Wunderground v.1.15,2013-09-24 22:59:00,
2013-09-24 19:04:00,54.0,47.3,29.87,West,260,3.0,4.0,78,0.00,,,0.00,0,Wunderground v.1.15,2013-09-24 23:04:00,
2013-09-24 19:09:00,53.7,46.7,29.87,WSW,251,2.0,4.0,77,0.00,,,0.00,0,Wunderground v.1.15,2013-09-24 23:09:00,
2013-09-24 19:14:00,53.5,46.8,29.87,SW,233,2.0,4.0,78,0.00,,,0.00,0,Wunderground v.1.15,2013-09-24 23:14:00,
2013-09-24 19:20:00,53.5,46.1,29.88,WSW,251,1.0,4.0,76,0.00,,,0.00,0,Wunderground v.1.15,2013-09-24 23:20:00,
2013-09-24 19:25:00,53.6,45.9,29.87,West,259,2.0,4.0,75,0.00,,,0.00,0,Wunderground v.1.15,2013-09-24 23:25:00,
2013-09-24 19:30:00,53.7,46.0,29.87,West,278,2.0,4.0,75,0.00,,,0.00,0,Wunderground v.1.15,2013-09-24 23:30:00,
2013-09-24 19:35:00,53.6,45.9,29.87,WNW,285,2.0,4.0,75,0.00,,,0.00,0,Wunderground v.1.15,2013-09-24 23:35:00,
2013-09-24 19:41:00,53.1,46.4,29.87,West,272,3.0,4.0,78,0.00,,,0.00,0,Wunderground v.1.15,2013-09-24 23:41:00,
2013-09-24 19:46:00,52.8,46.1,29.88,West,277,2.0,4.0,78,0.00,,,0.00,0,Wunderground v.1.15,2013-09-24 23:46:00,
2013-09-24 19:52:00,52.6,46.3,29.88,West,274,1.0,4.0,79,0.00,,,0.00,0,Wunderground v.1.15,2013-09-24 23:52:00,
2013-09-24 19:57:00,52.4,46.1,29.88,West,268,2.0,4.0,79,0.00,,,0.00,0,Wunderground v.1.15,2013-09-24 23:57:00,
2013-09-24 20:03:00,52.4,46.1,29.88,WSW,253,1.0,4.0,79,0.00,,,0.00,0,Wunderground v.1.15,2013-09-25 00:03:00,
2013-09-24 20:08:00,52.4,46.4,29.88,WSW,258,1.0,4.0,80,0.00,,,0.00,0,Wunderground v.1.15,2013-09-25 00:08:00,
2013-09-24 20:14:00,52.3,46.3,29.88,WNW,293,1.0,4.0,80,0.00,,,0.00,0,Wunderground v.1.15,2013-09-25 00:14:00,
2013-09-24 20:20:00,52.2,46.2,29.88,NW,319,2.0,4.0,80,0.00,,,0.00,0,Wunderground v.1.15,2013-09-25 00:20:00,
2013-09-24 20:25:00,52.1,46.1,29.88,NW,326,3.0,4.0,80,0.00,,,0.00,0,Wunderground v.1.15,2013-09-25 00:25:00,
2013-09-24 20:31:00,52.3,46.0,29.88,NW,326,3.0,5.0,79,0.00,,,0.00,0,Wunderground v.1.15,2013-09-25 00:31:00,
2013-09-24 20:36:00,52.5,46.5,29.88,West,281,3.0,5.0,80,0.00,,,0.00,0,Wunderground v.1.15,2013-09-25 00:36:00,
2013-09-24 20:41:00,52.3,46.3,29.88,NW,323,3.0,4.0,80,0.00,,,0.00,0,Wunderground v.1.15,2013-09-25 00:41:00,
2013-09-24 20:47:00,52.4,46.4,29.88,North,354,3.0,4.0,80,0.00,,,0.00,0,Wunderground v.1.15,2013-09-25 00:47:00,
2013-09-24 20:52:00,52.6,46.3,29.88,North,10,2.0,4.0,79,0.00,,,0.00,0,Wunderground v.1.15,2013-09-25 00:52:00,
2013-09-24 20:58:00,52.8,46.5,29.88,North,354,3.0,4.0,79,0.00,,,0.00,0,Wunderground v.1.15,2013-09-25 00:58:00,
2013-09-24 21:03:00,52.9,46.2,29.88,NNW,335,3.0,4.0,78,0.00,,,0.00,0,Wunderground v.1.15,2013-09-25 01:03:00,
2013-09-24 21:08:00,53.1,46.1,29.88,NW,322,3.0,5.0,77,0.00,,,0.00,0,Wunderground v.1.15,2013-09-25 01:08:00,
2013-09-24 21:14:00,53.0,46.0,29.88,NNW,336,3.0,4.0,77,0.00,,,0.00,0,Wunderground v.1.15,2013-09-25 01:14:00,
2013-09-24 21:20:00,52.7,46.4,29.89,NNW,347,3.0,4.0,79,0.00,,,0.00,0,Wunderground v.1.15,2013-09-25 01:20:00,
2013-09-24 21:25:00,52.6,46.3,29.89,NNW,339,3.0,4.0,79,0.00,,,0.00,0,Wunderground v.1.15,2013-09-25 01:25:00,
2013-09-24 21:31:00,52.6,45.9,29.89,NW,326,3.0,4.0,78,0.00,,,0.00,0,Wunderground v.1.15,2013-09-25 01:31:00,
2013-09-24 21:36:00,52.8,45.4,29.89,NNW,336,3.0,6.0,76,0.00,,,0.00,0,Wunderground v.1.15,2013-09-25 01:36:00,
2013-09-24 21:41:00,52.8,45.0,29.89,NW,326,2.0,5.0,75,0.00,,,0.00,0,weatherlink.com 1.10,2013-09-25 01:41:00,
2013-09-24 21:47:00,52.7,45.3,29.89,NW,309,3.0,4.0,76,0.00,,,0.00,0,Wunderground v.1.15,2013-09-25 01:47:00,
2013-09-24 21:53:00,51.9,45.3,29.89,NW,305,3.0,4.0,78,0.00,,,0.00,0,Wunderground v.1.15,2013-09-25 01:53:00,
2013-09-24 21:59:00,51.3,45.3,29.89,NW,314,3.0,4.0,80,0.00,,,0.00,0,Wunderground v.1.15,2013-09-25 01:59:00,
2013-09-24 22:05:00,51.0,45.0,29.89,NW,318,3.0,4.0,80,0.00,,,0.00,0,Wunderground v.1.15,2013-09-25 02:05:00,
2013-09-24 22:11:00,50.8,45.2,29.89,NW,315,4.0,5.0,81,0.00,,,0.00,0,Wunderground v.1.15,2013-09-25 02:11:00,
2013-09-24 22:16:00,50.6,45.0,29.89,NW,326,5.0,6.0,81,0.00,,,0.00,0,Wunderground v.1.15,2013-09-25 02:16:00,
2013-09-24 22:21:00,50.5,44.9,29.89,NW,322,4.0,4.0,81,0.00,,,0.00,0,Wunderground v.1.15,2013-09-25 02:21:00,
2013-09-24 22:26:00,50.4,45.0,29.89,NW,313,4.0,5.0,81,0.00,,,0.00,0,weatherlink.com 1.10,2013-09-25 02:26:00,
2013-09-24 22:32:00,50.0,44.4,29.89,NW,309,4.0,4.0,81,0.00,,,0.00,0,Wunderground v.1.15,2013-09-25 02:32:00,
2013-09-24 22:38:00,49.8,44.5,29.89,WNW,301,4.0,4.0,82,0.00,,,0.00,0,Wunderground v.1.15,2013-09-25 02:38:00,
2013-09-24 22:43:00,49.6,44.6,29.89,NW,310,3.0,4.0,83,0.00,,,0.00,0,Wunderground v.1.15,2013-09-25 02:43:00,
2013-09-24 22:49:00,49.2,44.6,29.89,NW,312,2.0,4.0,84,0.00,,,0.00,0,Wunderground v.1.15,2013-09-25 02:49:00,
2013-09-24 22:54:00,48.8,44.2,29.89,WNW,301,2.0,4.0,84,0.00,,,0.00,0,Wunderground v.1.15,2013-09-25 02:54:00,
2013-09-24 23:00:00,48.7,44.4,29.89,West,276,2.0,2.0,85,0.00,,,0.00,0,Wunderground v.1.15,2013-09-25 03:00:00,
2013-09-24 23:05:00,48.0,44.0,29.89,West,259,1.0,4.0,86,0.00,,,0.00,0,Wunderground v.1.15,2013-09-25 03:05:00,
2013-09-24 23:11:00,47.3,43.6,29.88,West,274,2.0,4.0,87,0.00,,,0.00,0,Wunderground v.1.15,2013-09-25 03:11:00,
2013-09-24 23:16:00,47.1,43.7,29.88,WNW,285,3.0,4.0,88,0.00,,,0.00,0,Wunderground v.1.15,2013-09-25 03:16:00,
2013-09-24 23:21:00,47.0,43.3,29.88,West,278,4.0,4.0,87,0.00,,,0.00,0,Wunderground v.1.15,2013-09-25 03:21:00,
2013-09-24 23:27:00,46.8,43.4,29.88,WNW,282,4.0,4.0,88,0.00,,,0.00,0,Wunderground v.1.15,2013-09-25 03:27:00,
2013-09-24 23:33:00,46.9,43.5,29.89,West,277,3.0,4.0,88,0.00,,,0.00,0,Wunderground v.1.15,2013-09-25 03:33:00,
2013-09-24 23:38:00,46.9,43.5,29.89,West,278,3.0,4.0,88,0.00,,,0.00,0,Wunderground v.1.15,2013-09-25 03:38:00,
2013-09-24 23:44:00,47.0,43.6,29.88,West,281,3.0,4.0,88,0.00,,,0.00,0,Wunderground v.1.15,2013-09-25 03:44:00,
2013-09-24 23:49:00,47.0,43.6,29.88,West,274,3.0,4.0,88,0.00,,,0.00,0,Wunderground v.1.15,2013-09-25 03:49:00,
2013-09-24 23:54:00,47.0,43.6,29.88,West,270,3.0,4.0,88,0.00,,,0.00,0,Wunderground v.1.15,2013-09-25 03:54:00,